Chatham, MA

1:48 AM EDT on July 28, 2017 (GMT -0400)
Chatham Municipal

Weather History for KCQX - September, 2011

Change the Weather History Date:

Friday, September 2, 2011

  Actual Average Record
Temperature  
Mean Temperature 63 °F -  
Max Temperature 70 °F 72 °F 84 °F (2010)
Min Temperature 57 °F 59 °F 50 °F (1991)
Degree Days  
Heating Degree Days 2    
Growing Degree Days 13 (Base 50)    
Moisture  
Dew Point 58 °F    
Average Humidity 78    
Maximum Humidity 94    
Minimum Humidity 64    
Precipitation  
Precipitation 0.00 in - - ()
Sea Level Pressure  
Sea Level Pressure 30.12 in    
Wind  
Wind Speed 6 mph (NNE)    
Max Wind Speed 14 mph    
Max Gust Speed 18 mph    
Visibility 10 miles    
Events      
Averages and records for this station are not official NWS values.
T = Trace of Precipitation, MM = Missing Value Source: NWS Daily Summary

Daily Weather History Graph

Daily Weather History Graph

Search for Another Location

Airport or City:

Trip Planner

Search our weather history database for the weather conditions in past years. The results will help you decide how hot, cold, wet, or windy it might be!

Date:

Astronomy

Sep. 02, 2011 Rise Set
Actual Time 6:06 AM EDT 7:12 PM EDT
Civil Twilight 5:38 AM EDT 7:40 PM EDT
Nautical Twilight 5:03 AM EDT 8:14 PM EDT
Astronomical Twilight 4:28 AM EDT 8:49 PM EDT
Moon 11:41 AM EDT (9/2) 9:37 PM EDT (9/2)
Length of Visible Light 14h 02m
Length of Day
13h 05m
Waxing Crescent, 27% of the Moon is Illuminated
Sep 2
Waxing Crescent
Sep 4
First Quarter
Sep 12
Full
Sep 20
Last Quarter
Sep 27
New

Hourly Weather History & Observations

Time (EDT) Temp. Dew Point Humidity Pressure Visibility Wind Dir Wind Speed Gust Speed Precip Events Conditions
12:52 AM 64.9 °F 60.1 °F 84% 30.15 in 10.0 mi NE 6.9 mph - N/A   Overcast
1:52 AM 64.9 °F 59.0 °F 81% 30.14 in 10.0 mi ENE 6.9 mph - N/A   Overcast
2:52 AM 64.0 °F 59.0 °F 84% 30.13 in 10.0 mi NE 5.8 mph - N/A   Scattered Clouds
3:52 AM 63.0 °F 59.0 °F 87% 30.13 in 10.0 mi NNE 3.5 mph - N/A   Clear
4:11 AM 62.6 °F 57.2 °F 82% 30.13 in 10.0 mi North 3.5 mph - N/A   Scattered Clouds
5:01 AM 62.6 °F 59.0 °F 88% 30.12 in 10.0 mi Variable 3.5 mph - N/A   Mostly Cloudy
5:14 AM 62.6 °F 59.0 °F 88% 30.12 in 10.0 mi Variable 3.5 mph - N/A   Scattered Clouds
5:52 AM 62.1 °F 59.0 °F 90% 30.13 in 10.0 mi North 3.5 mph - N/A   Scattered Clouds
6:01 AM 62.6 °F 59.0 °F 88% 30.13 in 10.0 mi Calm Calm - N/A   Mostly Cloudy
6:52 AM 63.0 °F 60.1 °F 90% 30.15 in 10.0 mi Variable 5.8 mph - N/A   Overcast
7:01 AM 62.6 °F 60.8 °F 94% 30.15 in 9.0 mi NNE 8.1 mph - N/A   Overcast
7:33 AM 62.6 °F 59.0 °F 88% 30.15 in 10.0 mi Variable 6.9 mph - N/A   Overcast
8:52 AM 64.0 °F 57.0 °F 78% 30.14 in 10.0 mi NNE 8.1 mph - N/A   Mostly Cloudy
9:47 AM 66.2 °F 57.2 °F 73% 30.15 in 10.0 mi North 8.1 mph - N/A   Scattered Clouds
10:14 AM 68.0 °F 59.0 °F 73% 30.14 in 10.0 mi NNE 9.2 mph 16.1 mph N/A   Mostly Cloudy
10:52 AM 69.1 °F 59.0 °F 70% 30.16 in 10.0 mi NNE 5.8 mph 17.3 mph N/A   Mostly Cloudy
11:43 AM 69.8 °F 57.2 °F 64% 30.14 in 10.0 mi NE 9.2 mph 17.3 mph N/A   Scattered Clouds
11:52 AM 68.0 °F 57.9 °F 70% 30.14 in 10.0 mi NNE 12.7 mph 18.4 mph N/A   Scattered Clouds
12:52 PM 69.1 °F 57.9 °F 68% 30.13 in 10.0 mi NE 13.8 mph 18.4 mph N/A   Scattered Clouds
1:18 PM 69.8 °F 57.2 °F 64% 30.12 in 10.0 mi NE 13.8 mph - N/A   Mostly Cloudy
1:40 PM 69.8 °F 57.2 °F 64% 30.12 in 10.0 mi NE 10.4 mph 17.3 mph N/A   Scattered Clouds
3:12 PM 69.8 °F 57.2 °F 64% 30.10 in 10.0 mi NE 8.1 mph - N/A   Mostly Cloudy
3:43 PM 69.8 °F 57.2 °F 64% 30.09 in 10.0 mi NNE 9.2 mph - N/A   Scattered Clouds
3:52 PM 68.0 °F 57.9 °F 70% 30.10 in 10.0 mi NE 9.2 mph - N/A   Partly Cloudy
4:52 PM 68.0 °F 57.0 °F 68% 30.10 in 10.0 mi Variable 5.8 mph - N/A   Mostly Cloudy
5:06 PM 68.0 °F 57.2 °F 68% 30.09 in 10.0 mi NNE 4.6 mph - N/A   Scattered Clouds
5:17 PM 68.0 °F 57.2 °F 68% 30.09 in 10.0 mi Variable 4.6 mph - N/A   Mostly Cloudy
5:40 PM 66.2 °F 57.2 °F 73% 30.09 in 10.0 mi NE 9.2 mph - N/A   Mostly Cloudy
5:50 PM 66.2 °F 57.2 °F 73% 30.09 in 10.0 mi Variable 4.6 mph - N/A   Scattered Clouds
5:52 PM 66.0 °F 57.9 °F 75% 30.09 in 10.0 mi Variable 4.6 mph - N/A   Scattered Clouds
7:52 PM 63.0 °F 57.9 °F 84% 30.07 in 10.0 mi Calm Calm - N/A   Clear
8:52 PM 59.0 °F 55.9 °F 90% 30.08 in 10.0 mi Calm Calm - N/A   Clear
10:52 PM 57.0 °F 54.0 °F 89% 30.06 in 9.0 mi Calm Calm - N/A   Clear
11:52 PM 57.0 °F 53.1 °F 87% 30.07 in 10.0 mi NNW 3.5 mph - N/A   Clear